Regional Weather Roundup
Issued by NWS

Home | Current Version | Previous Version | Graphics & Text | Print | Product List | Glossary On
Versions: 1 2 3 4 5 6 7 8 9 10 11 12 13 14 15 16 17 18 19 20 21 22 23 24 25 26 27 28 29 30 31 32 33 34 35 36 37 38 39 40 41 42 43 44 45 46 47 48 49 50
000
ASUS43 KLMK 200002
RWRKY
KENTUCKY REGIONAL WEATHER ROUNDUP
NATIONAL WEATHER SERVICE LOUISVILLE KY
700 PM EST MON FEB 19 2018

NOTE "FAIR" INDICATES FEW OR NO CLOUDS BELOW 12,000 FEET
WITH NO SIGNIFICANT WEATHER AND/OR OBSTRUCTIONS TO VISIBILITY.

KYZ001>023-026-027-061>063-070>075-200100-
WESTERN AND SOUTH CENTRAL KENTUCKY

CITY           SKY/WX    TMP DP  RH WIND       PRES   REMARKS
PADUCAH        MOCLDY    70  55  59 S9        30.01R
HENDERSON      FAIR      68  55  63 S9        30.05R
OWENSBORO      FAIR      69  55  60 S18       30.05R
HOPKINSVILLE   FAIR      70  55  59 S12       30.08R
BOWLING GREEN  FAIR      70  56  61 S14       30.12R
GLASGOW        NOT AVBL
$$

KYZ024-025-028>034-038-045-046-053-200100-
NORTH CENTRAL KENTUCKY

CITY           SKY/WX    TMP DP  RH WIND       PRES   REMARKS
LOUISVILLE/SDF CLOUDY    72  53  51 S14G24    30.07R
LOUISVILLE/LOU FAIR      71  54  54 S16G26    30.08R
FORT KNOX      FAIR      68  53  58 S10       30.09R
$$

KYZ035>037-039>044-047>052-055>060-089>105-200100-
NORTHEAST KENTUCKY

CITY           SKY/WX    TMP DP  RH WIND       PRES   REMARKS
LEXINGTON      FAIR      68  54  60 S13       30.14R
COVINGTON      CLOUDY    70  56  61 S15       30.07R
FRANKFORT      FAIR      69  54  58 S10       30.10R
$$

KYZ054-064>069-076>088-106>120-200100-
SOUTHEAST KENTUCKY

CITY           SKY/WX    TMP DP  RH WIND       PRES   REMARKS
JACKSON        MOCLDY    67  51  56 VRB5      30.21R
LONDON         FAIR      65  54  67 S7        30.21R
SOMERSET       FAIR      64  54  68 MISG      30.20S
MIDDLESBORO    MOCLDY    63  56  77 CALM      30.24S
MONTICELLO     NOT AVBL
$$





USA.gov is the U.S. government's official web portal to all federal, state and local government web resources and services.